HUGOCO Weather Reports


time (UTC)temp
C
wind
direction
speed
KPH
gust
KPH
rain 1hr
cm
rain 24hr
cm
rain mn
cm
humidity
%
barometer
mb
20260507180552 17 359 9.7 19.3 0.00 0.20 0.00 24 1020.4
20260507180052 17 359 11.3 14.5 0.00 0.20 0.00 24 1020.4
20260507175552 17 359 12.9 22.5 0.00 0.20 0.00 26 1020.5
20260507175052 17 359 8.0 20.9 0.00 0.20 0.00 26 1020.5
20260507174552 17 359 6.4 12.9 0.00 0.20 0.00 25 1020.6
20260507174052 17 359 11.3 17.7 0.00 0.36 0.00 24 1020.8
20260507173552 17 359 14.5 20.9 0.00 0.36 0.00 26 1020.9
20260507173052 17 359 12.9 22.5 0.00 0.36 0.00 26 1021.1
20260507172552 17 359 8.0 20.9 0.00 0.36 0.00 27 1021.0
20260507172052 17 359 6.4 14.5 0.00 0.36 0.00 27 1021.2
20260507171552 17 359 9.7 14.5 0.00 0.36 0.00 25 1021.3
20260507171052 16 359 12.9 22.5 0.00 0.36 0.00 25 1021.5
20260507170552 16 359 14.5 22.5 0.00 0.36 0.00 25 1021.6
20260507170052 16 359 14.5 24.1 0.00 0.36 0.00 26 1021.7
20260507165642 16 359 14.5 24.1 0.00 0.36 0.00 25 1021.9
20260507165552 16 359 14.5 24.1 0.00 0.36 0.00 25 1021.9
20260507165052 16 359 11.3 24.1 0.00 0.36 0.00 24 1021.9
20260507164552 16 359 12.9 16.1 0.00 0.36 0.00 25 1021.9
20260507164052 16 359 12.9 24.1 0.00 0.56 0.00 24 1022.0
20260507163552 16 359 11.3 24.1 0.00 0.56 0.00 25 1022.1
20260507163052 16 359 9.7 17.7 0.00 0.56 0.00 25 1022.2
20260507162552 16 359 8.0 17.7 0.00 0.56 0.00 27 1022.2
20260507162052 16 359 11.3 20.9 0.00 0.56 0.00 31 1022.3
20260507161552 16 359 9.7 20.9 0.00 0.56 0.00 28 1022.3
20260507161052 15 359 9.7 17.7 0.00 0.56 0.00 38 1022.3
20260507160552 15 359 9.7 17.7 0.00 0.56 0.00 34 1022.4
20260507160052 15 359 9.7 17.7 0.00 0.56 0.00 36 1022.4
20260507155625 15 359 11.3 17.7 0.00 0.56 0.00 38 1022.6
20260507155552 15 359 11.3 17.7 0.00 0.56 0.00 38 1022.6
20260507155052 15 359 11.3 19.3 0.00 0.56 0.00 36 1022.6
20260507154552 15 359 11.3 17.7 0.00 0.56 0.00 37 1022.7
20260507154052 15 359 14.5 17.7 0.00 0.58 0.00 40 1022.7
20260507153552 15 359 16.1 22.5 0.00 0.58 0.00 39 1022.7
20260507153052 15 359 16.1 20.9 0.00 0.58 0.00 27 1022.9
20260507152552 15 359 17.7 25.7 0.00 0.58 0.00 34 1022.8
20260507152052 14 359 20.9 25.7 0.00 0.58 0.00 33 1022.9
20260507151552 13 359 20.9 27.4 0.00 0.58 0.00 34 1023.0
20260507151052 13 359 20.9 25.7 0.00 0.58 0.00 38 1023.0
20260507150552 13 359 22.5 27.4 0.00 0.58 0.00 40 1023.1
20260507150052 13 359 22.5 27.4 0.00 0.58 0.00 39 1023.1
20260507145552 12 359 22.5 29.0 0.00 0.58 0.00 42 1023.1
20260507145052 12 359 20.9 27.4 0.00 0.58 0.00 45 1023.1
20260507144552 11 359 20.9 27.4 0.00 0.58 0.00 46 1023.2
20260507144052 11 359 19.3 24.1 0.00 0.58 0.00 47 1023.1
20260507143552 10 359 20.9 29.0 0.00 0.58 0.00 50 1023.2
20260507143052 10 359 20.9 29.0 0.00 0.58 0.00 47 1023.3
20260507142552 10 359 20.9 29.0 0.00 0.58 0.00 48 1023.3
20260507142052 10 359 22.5 27.4 0.00 0.58 0.00 47 1023.3
20260507141552 10 359 22.5 30.6 0.00 0.58 0.00 44 1023.4
20260507141052 10 359 22.5 32.2 0.00 0.58 0.00 47 1023.4
20260507140552 9 359 22.5 29.0 0.00 0.58 0.00 48 1023.5
20260507140052 9 359 19.3 32.2 0.00 0.58 0.00 47 1023.5
20260507135552 8 359 14.5 25.7 0.00 0.58 0.00 53 1023.5
20260507135052 8 359 14.5 19.3 0.00 0.58 0.00 58 1023.6
20260507134552 7 359 12.9 17.7 0.00 0.58 0.00 59 1023.8
20260507134052 5 359 8.0 17.7 0.00 0.58 0.00 68 1023.7
20260507133552 5 359 8.0 17.7 0.00 0.58 0.00 69 1023.8
20260507133052 5 359 8.0 12.9 0.00 0.58 0.00 70 1023.7
20260507132552 4 359 11.3 16.1 0.00 0.58 0.00 71 1023.6
20260507132052 3 359 14.5 16.1 0.00 0.58 0.00 71 1023.5
20260507131552 3 359 14.5 17.7 0.00 0.58 0.00 70 1023.5
20260507131052 2 359 11.3 17.7 0.00 0.58 0.00 71 1023.4
20260507130552 2 359 9.7 16.1 0.00 0.58 0.00 72 1023.5
20260507130052 2 359 6.4 16.1 0.00 0.58 0.00 72 1023.4
20260507125552 2 359 8.0 12.9 0.00 0.58 0.00 72 1023.5
20260507125052 2 359 12.9 17.7 0.00 0.58 0.00 71 1023.6
20260507124552 2 359 14.5 19.3 0.00 0.58 0.00 70 1023.4
20260507124052 2 359 19.3 17.7 0.00 0.58 0.00 69 1023.3
20260507123552 3 359 22.5 25.7 0.00 0.58 0.00 66 1023.3
20260507123052 2 359 22.5 25.7 0.00 0.58 0.00 70 1023.2
20260507122552 2 359 22.5 25.7 0.00 0.58 0.00 68 1023.1
20260507122052 2 359 22.5 25.7 0.00 0.58 0.00 69 1023.0
20260507121552 2 359 20.9 24.1 0.00 0.58 0.00 70 1023.1
20260507121052 2 359 22.5 22.5 0.00 0.58 0.00 71 1023.0
20260507120552 2 359 24.1 25.7 0.00 0.58 0.00 71 1023.2
20260507120052 2 359 25.7 27.4 0.00 0.58 0.00 71 1023.2
20260507115553 2 359 25.7 27.4 0.00 0.58 0.00 71 1023.1
20260507115053 2 359 25.7 27.4 0.00 0.58 0.00 72 1023.1
20260507114553 2 359 25.7 27.4 0.00 0.58 0.00 72 1023.2
20260507114053 2 359 27.4 29.0 0.00 0.58 0.00 73 1023.2
20260507113553 2 359 27.4 30.6 0.00 0.58 0.00 73 1023.2
20260507113053 2 359 27.4 29.0 0.00 0.58 0.00 73 1023.3
20260507112553 2 359 27.4 30.6 0.00 0.58 0.00 74 1023.3
20260507112053 1 359 29.0 29.0 0.00 0.58 0.00 75 1023.3
20260507111553 1 359 27.4 30.6 0.00 0.58 0.00 76 1023.4
20260507111053 1 359 27.4 30.6 0.00 0.58 0.00 77 1023.5
20260507110553 1 359 27.4 32.2 0.00 0.58 0.00 78 1023.5
20260507110053 1 359 29.0 32.2 0.00 0.58 0.00 79 1023.5
20260507105553 1 359 27.4 32.2 0.00 0.58 0.00 80 1023.7
20260507105053 1 359 22.5 29.0 0.00 0.58 0.00 81 1023.7
20260507104553 1 359 20.9 25.7 0.00 0.58 0.00 81 1023.9
20260507104053 1 359 22.5 24.1 0.00 0.58 0.00 80 1023.9
20260507103553 1 359 27.4 27.4 0.00 0.58 0.00 80 1024.0
20260507103053 1 359 30.6 33.8 0.00 0.58 0.00 78 1024.0
20260507102553 2 359 29.0 35.4 0.00 0.58 0.00 78 1024.0
20260507102053 1 359 29.0 35.4 0.00 0.58 0.00 79 1024.1
20260507101553 1 359 27.4 33.8 0.00 0.58 0.00 81 1024.1
20260507101053 1 359 25.7 30.6 0.00 0.58 0.00 84 1024.1
20260507100553 0 359 24.1 29.0 0.00 0.58 0.00 85 1024.3
20260507100053 0 359 22.5 24.1 0.00 0.58 0.00 85 1024.2
20260507095553 0 359 22.5 25.7 0.00 0.58 0.00 85 1024.2
20260507095053 0 359 22.5 25.7 0.00 0.58 0.00 85 1024.2
20260507094553 0 359 24.1 25.7 0.00 0.58 0.00 85 1024.3
20260507094132 0 359 25.7 29.0 0.00 0.58 0.00 86 1024.3
20260507094053 0 359 25.7 29.0 0.00 0.58 0.00 86 1024.3
20260507093553 0 359 27.4 33.8 0.00 0.58 0.00 86 1024.3
20260507093053 0 359 25.7 32.2 0.00 0.58 0.00 87 1024.3
20260507092553 0 359 25.7 30.6 0.00 0.58 0.00 87 1024.3
20260507092053 0 359 24.1 29.0 0.00 0.58 0.00 87 1024.4
20260507091553 0 359 22.5 27.4 0.00 0.58 0.00 87 1024.4
20260507091053 0 359 22.5 24.1 0.00 0.58 0.00 86 1024.6
20260507090553 0 359 24.1 29.0 0.00 0.58 0.00 86 1024.6
20260507090053 0 359 24.1 29.0 0.00 0.58 0.00 86 1024.5
20260507085553 0 359 25.7 29.0 0.00 0.58 0.00 86 1024.6
20260507085053 1 359 25.7 32.2 0.00 0.58 0.00 86 1024.6
20260507084553 1 359 27.4 32.2 0.00 0.58 0.00 86 1024.7
20260507084053 1 359 29.0 33.8 0.00 0.58 0.00 86 1024.8
20260507083553 1 359 29.0 35.4 0.00 0.58 0.00 86 1024.6
20260507083053 1 359 29.0 38.6 0.00 0.58 0.00 86 1024.8
20260507082553 1 359 29.0 33.8 0.00 0.58 0.00 86 1024.9
20260507082053 1 359 29.0 38.6 0.00 0.58 0.00 86 1024.8
20260507081553 1 359 30.6 37.0 0.00 0.58 0.00 86 1025.0
20260507081053 1 359 30.6 37.0 0.00 0.58 0.00 86 1025.1
20260507080553 1 359 30.6 40.2 0.00 0.58 0.00 86 1025.2
20260507080053 1 359 30.6 37.0 0.00 0.58 0.00 86 1025.2
20260507075553 1 359 30.6 40.2 0.00 0.58 0.00 87 1025.2
20260507075053 1 359 30.6 41.8 0.00 0.58 0.00 87 1025.2
20260507074553 1 359 29.0 35.4 0.00 0.58 0.00 87 1025.2
20260507074053 1 359 25.7 35.4 0.00 0.58 0.00 87 1025.4
20260507073553 1 359 25.7 30.6 0.00 0.58 0.00 87 1025.4
20260507073053 1 359 25.7 32.2 0.00 0.58 0.00 87 1025.6
20260507072637 1 359 25.7 33.8 0.00 0.58 0.00 87 1025.6
20260507072553 1 359 25.7 33.8 0.00 0.58 0.00 87 1025.6
20260507072053 1 359 25.7 32.2 0.00 0.58 0.00 87 1025.7
20260507071553 1 359 25.7 32.2 0.00 0.58 0.00 87 1025.7
20260507071053 1 359 24.1 29.0 0.00 0.58 0.00 88 1025.8
20260507070553 1 359 25.7 33.8 0.00 0.58 0.00 88 1026.0
20260507070053 1 359 24.1 32.2 0.00 0.58 0.00 88 1026.0
20260507065641 1 359 22.5 30.6 0.00 0.58 0.00 89 1026.0
20260507065553 1 359 22.5 30.6 0.00 0.58 0.00 89 1026.0
20260507065053 1 359 20.9 29.0 0.00 0.58 0.00 89 1026.1
20260507064553 0 359 19.3 25.7 0.00 0.58 0.00 90 1026.0
20260507064053 0 359 17.7 24.1 0.00 0.58 0.00 90 1026.1
20260507063553 0 359 17.7 22.5 0.00 0.58 0.00 90 1026.1
20260507063053 0 359 17.7 22.5 0.00 0.58 0.00 90 1026.1
20260507062553 0 359 17.7 20.9 0.00 0.58 0.58 90 1026.1
20260507062053 0 359 19.3 22.5 0.00 0.58 0.58 90 1026.1
20260507061553 0 359 19.3 20.9 0.00 0.58 0.58 90 1026.1
20260507061053 0 359 19.3 22.5 0.00 0.58 0.58 90 1026.1
20260507060553 0 359 20.9 22.5 0.00 0.58 0.58 90 1026.1
20260507060053 1 359 20.9 24.1 0.00 0.58 0.58 90 1026.1
20260507055553 1 359 20.9 24.1 0.00 0.58 0.58 90 1026.2
20260507055053 1 359 19.3 22.5 0.00 0.58 0.58 90 1026.2
20260507054553 1 359 19.3 22.5 0.00 0.58 0.58 90 1026.2
20260507054053 1 359 19.3 22.5 0.00 0.58 0.58 90 1026.2
20260507053553 1 359 19.3 22.5 0.00 0.58 0.58 89 1026.2
20260507053053 1 359 19.3 20.9 0.00 0.58 0.58 89 1026.3
20260507052553 1 359 19.3 25.7 0.00 0.58 0.58 89 1026.3
20260507052053 1 359 19.3 27.4 0.00 0.58 0.58 89 1026.3
20260507051553 1 359 20.9 24.1 0.00 0.58 0.58 89 1026.3
20260507051502 1 359 22.5 25.7 0.00 0.58 0.58 89 1026.3
20260507051053 1 359 22.5 25.7 0.00 0.58 0.58 89 1026.3
20260507050553 1 359 22.5 27.4 0.00 0.58 0.58 89 1026.3
20260507050053 1 359 22.5 27.4 0.00 0.58 0.58 89 1026.3
20260507045756 1 359 22.5 27.4 0.00 0.58 0.58 88 1026.4
20260507045553 1 359 22.5 27.4 0.00 0.58 0.58 88 1026.4
20260507045053 1 359 22.5 25.7 0.00 0.58 0.58 88 1026.4
20260507044553 1 359 22.5 25.7 0.00 0.58 0.58 87 1026.5
20260507044053 1 359 24.1 27.4 0.00 0.58 0.58 87 1026.5
20260507043553 1 359 25.7 29.0 0.00 0.58 0.58 86 1026.5
20260507043053 1 359 25.7 30.6 0.00 0.58 0.58 85 1026.5
20260507043001 1 359 25.7 29.0 0.00 0.58 0.58 84 1026.6
20260507042553 1 359 25.7 29.0 0.00 0.58 0.58 84 1026.6
20260507042054 1 359 24.1 27.4 0.00 0.58 0.58 83 1026.6
20260507041554 1 359 24.1 25.7 0.00 0.58 0.58 82 1026.6
20260507041235 1 359 24.1 29.0 0.00 0.58 0.58 81 1026.6
20260507041054 1 359 24.1 29.0 0.00 0.58 0.58 81 1026.6
20260507040554 1 359 24.1 27.4 0.00 0.58 0.58 81 1026.6
20260507040054 1 359 20.9 27.4 0.00 0.58 0.58 81 1026.6
20260507035554 1 359 19.3 22.5 0.00 0.58 0.58 80 1026.7
20260507035054 1 359 19.3 20.9 0.00 0.58 0.58 79 1026.7
20260507034554 2 359 19.3 19.3 0.00 0.58 0.58 78 1026.8
20260507034054 2 359 17.7 20.9 0.00 0.61 0.58 76 1026.7
20260507033554 2 359 16.1 17.7 0.00 0.61 0.58 75 1026.7
20260507033054 3 359 16.1 17.7 0.00 0.61 0.58 74 1026.7
20260507032719 3 359 16.1 19.3 0.00 0.61 0.58 74 1026.7
20260507032554 3 359 16.1 19.3 0.00 0.61 0.58 74 1026.7
20260507032054 3 359 14.5 19.3 0.00 0.61 0.58 74 1026.7
20260507031554 3 359 9.7 14.5 0.00 0.61 0.58 74 1026.7
20260507031219 2 359 9.7 12.9 0.00 0.61 0.58 75 1026.7
20260507031054 2 359 9.7 12.9 0.00 0.61 0.58 75 1026.7
20260507030554 2 359 8.0 9.7 0.00 0.61 0.58 75 1026.6
20260507030054 2 359 8.0 9.7 0.00 0.61 0.58 77 1026.6
20260507025708 2 359 6.4 9.7 0.00 0.61 0.58 77 1026.5
20260507025554 2 359 6.4 9.7 0.00 0.61 0.58 77 1026.5
20260507025054 2 359 6.4 8.0 0.00 0.61 0.58 76 1026.6
20260507024554 2 359 9.7 9.7 0.00 0.61 0.58 74 1026.6
20260507024054 3 359 11.3 12.9 0.00 0.66 0.58 73 1026.6
20260507023554 3 359 11.3 12.9 0.00 0.66 0.58 72 1026.6
20260507023054 3 359 9.7 14.5 0.00 0.66 0.58 71 1026.5
20260507022554 3 359 8.0 9.7 0.00 0.66 0.58 69 1026.6
20260507022054 3 359 8.0 9.7 0.00 0.66 0.58 70 1026.6
20260507021554 3 359 8.0 8.0 0.00 0.66 0.58 72 1026.6
20260507021054 3 359 6.4 9.7 0.00 0.66 0.58 71 1026.6
20260507020554 3 359 8.0 8.0 0.00 0.66 0.58 70 1026.6
20260507020054 3 359 8.0 9.7 0.00 0.66 0.58 69 1026.4
20260507015554 3 359 8.0 9.7 0.00 0.66 0.58 70 1026.5
20260507015054 3 359 8.0 9.7 0.00 0.66 0.58 69 1026.6
20260507014554 3 359 6.4 8.0 0.00 0.66 0.58 68 1026.6
20260507014054 4 359 6.4 6.4 0.00 0.71 0.58 69 1026.6
20260507013554 4 359 6.4 8.0 0.00 0.71 0.58 69 1026.7
20260507013054 4 359 6.4 8.0 0.00 0.71 0.58 68 1026.7
20260507012554 4 359 6.4 8.0 0.00 0.71 0.58 70 1026.6
20260507012054 4 359 6.4 8.0 0.00 0.71 0.58 70 1026.6
20260507011554 4 359 6.4 6.4 0.00 0.71 0.58 70 1026.6
20260507011054 4 359 8.0 9.7 0.00 0.71 0.58 70 1026.6
20260507010554 4 359 9.7 12.9 0.00 0.71 0.58 69 1026.5
20260507010054 4 359 11.3 16.1 0.00 0.71 0.58 67 1026.5
20260507005554 5 359 9.7 17.7 0.00 0.71 0.58 66 1026.5
20260507005054 5 359 4.8 12.9 0.00 0.71 0.58 67 1026.4
20260507004554 5 359 1.6 1.6 0.00 0.71 0.58 67 1026.4
20260507004431 4 359 3.2 4.8 0.00 0.81 0.58 67 1026.4
20260507004054 4 359 3.2 4.8 0.00 0.81 0.58 67 1026.4
20260507003554 4 359 3.2 6.4 0.00 0.81 0.58 69 1026.3
20260507003054 4 359 3.2 6.4 0.00 0.81 0.58 69 1026.4
20260507002554 4 359 1.6 6.4 0.00 0.81 0.58 68 1026.4
20260507002054 4 359 1.6 6.4 0.00 0.81 0.58 69 1026.3
20260507001554 4 359 1.6 6.4 0.00 0.81 0.58 71 1026.4
20260507001054 4 359 1.6 4.8 0.00 0.81 0.58 72 1026.4
20260507000554 4 359 1.6 6.4 0.00 0.81 0.58 75 1026.4
20260507000054 4 359 0.0 6.4 0.00 0.81 0.58 76 1026.4
20260506235554 3 359 1.6 1.6 0.00 0.81 0.58 75 1026.5
20260506235054 3 359 3.2 4.8 0.00 0.81 0.58 74 1026.5
20260506234554 3 359 1.6 6.4 0.00 0.81 0.58 74 1026.4
20260506234054 3 359 1.6 3.2 0.00 0.84 0.58 78 1026.4
20260506233554 3 359 0.0 4.8 0.00 0.84 0.58 78 1026.5
20260506233054 3 359 1.6 1.6 0.00 0.84 0.58 79 1026.6
20260506232554 3 359 3.2 6.4 0.00 0.84 0.58 79 1026.5
20260506232054 3 359 3.2 8.0 0.00 0.84 0.58 80 1026.6
20260506231554 3 359 3.2 6.4 0.00 0.84 0.58 81 1026.5
20260506231054 3 359 1.6 4.8 0.03 0.84 0.58 83 1026.5
20260506230554 3 359 3.2 3.2 0.03 0.84 0.58 83 1026.5
20260506230054 2 359 3.2 6.4 0.03 0.84 0.58 84 1026.5
20260506225554 2 359 3.2 6.4 0.03 0.84 0.58 85 1026.5
20260506225054 2 359 3.2 6.4 0.03 0.84 0.58 86 1026.5
20260506224554 2 359 3.2 6.4 0.03 0.84 0.58 87 1026.5
20260506224054 2 359 3.2 6.4 0.03 0.86 0.58 88 1026.5
20260506223554 2 359 3.2 4.8 0.03 0.86 0.58 89 1026.5
20260506223054 2 359 4.8 8.0 0.03 0.86 0.58 89 1026.6
20260506222554 2 359 4.8 9.7 0.03 0.86 0.58 90 1026.5
20260506222054 2 359 6.4 8.0 0.03 0.86 0.58 91 1026.6
20260506221554 2 359 6.4 12.9 0.03 0.86 0.58 91 1026.7
20260506221054 2 359 6.4 9.7 0.00 0.84 0.56 92 1026.7
20260506220554 2 359 8.0 16.1 0.00 0.84 0.56 93 1026.5
20260506220054 2 359 8.0 14.5 0.00 0.84 0.56 94 1026.5
20260506215554 2 359 9.7 14.5 0.00 0.84 0.56 95 1026.4
20260506215054 2 359 9.7 16.1 0.00 0.84 0.56 94 1026.6
20260506214554 2 359 12.9 16.1 0.00 0.84 0.56 95 1026.6
20260506214054 1 359 12.9 17.7 0.00 0.86 0.56 95 1026.7
20260506213554 1 359 12.9 16.1 0.03 0.86 0.56 95 1026.9
20260506213054 1 359 12.9 16.1 0.03 0.86 0.56 95 1026.9
20260506212554 1 359 12.9 16.1 0.03 0.86 0.56 95 1026.8
20260506212054 1 359 14.5 12.9 0.03 0.86 0.56 96 1027.0
20260506211554 1 359 14.5 20.9 0.03 0.86 0.56 96 1027.0
20260506211054 1 359 14.5 19.3 0.03 0.86 0.56 96 1027.0
20260506210554 1 359 16.1 17.7 0.03 0.86 0.56 96 1027.1
20260506210054 1 359 17.7 20.9 0.05 0.86 0.56 96 1027.1
20260506205555 0 359 17.7 22.5 0.05 0.86 0.56 96 1027.1
20260506205054 1 359 17.7 19.3 0.05 0.86 0.56 96 1027.2
20260506204554 1 359 16.1 24.1 0.08 0.86 0.56 96 1027.2
20260506204055 1 359 17.7 20.9 0.08 0.86 0.56 96 1027.1
20260506203555 0 359 19.3 24.1 0.05 0.84 0.53 96 1027.2
20260506203055 0 359 20.9 22.5 0.05 0.84 0.53 96 1027.2
20260506203002 0 359 20.9 24.1 0.08 0.84 0.53 96 1027.3
20260506202555 0 359 20.9 24.1 0.08 0.84 0.53 96 1027.3
20260506202055 0 359 19.3 25.7 0.08 0.84 0.53 96 1027.2
20260506201555 0 359 17.7 19.3 0.08 0.84 0.53 96 1027.3
20260506201055 0 359 17.7 22.5 0.10 0.84 0.53 96 1027.3
20260506200555 0 359 17.7 20.9 0.10 0.84 0.53 96 1027.2
20260506200055 0 359 17.7 20.9 0.08 0.81 0.51 96 1027.3
20260506195555 0 359 19.3 20.9 0.10 0.81 0.51 96 1027.1
20260506195055 0 359 19.3 20.9 0.10 0.81 0.51 96 1027.2
20260506194555 0 359 19.3 22.5 0.08 0.79 0.48 96 1027.2
20260506194055 0 359 22.5 24.1 0.10 0.81 0.48 96 1027.1
20260506193555 0 359 20.9 25.7 0.10 0.81 0.48 96 1027.1
20260506193055 0 359 20.9 24.1 0.10 0.81 0.48 96 1027.3
20260506192555 0 359 20.9 22.5 0.10 0.79 0.46 95 1027.3
20260506192055 0 359 20.9 24.1 0.10 0.79 0.46 96 1027.2
20260506191555 0 359 19.3 22.5 0.13 0.79 0.46 95 1027.0
20260506191055 0 359 19.3 22.5 0.10 0.76 0.43 96 1027.2
20260506190555 0 359 19.3 22.5 0.13 0.76 0.43 96 1027.2
20260506190055 0 359 17.7 22.5 0.15 0.76 0.43 95 1027.1
20260506185555 0 359 17.7 20.9 0.13 0.74 0.41 96 1027.1
20260506185055 0 359 19.3 20.9 0.15 0.74 0.41 95 1027.0
20260506184555 0 359 19.3 20.9 0.15 0.74 0.41 96 1027.0
20260506184055 0 359 17.7 22.5 0.15 0.71 0.38 96 1027.0
20260506183555 0 359 17.7 20.9 0.18 0.71 0.38 96 1027.1
20260506183055 0 359 17.7 19.3 0.20 0.71 0.38 96 1027.1
20260506182555 0 359 17.7 20.9 0.20 0.69 0.36 96 1027.0
20260506182055 0 359 17.7 22.5 0.23 0.69 0.36 96 1027.0
20260506181555 0 359 17.7 19.3 0.20 0.66 0.33 96 1027.1
20260506181055 0 359 19.3 22.5 0.25 0.66 0.33 96 1027.0